Location: Arroyo de Valdeoliva
(40.1604°N, 4.9878°W)
Time: 04:24:32
(UTC+00:00)

Cosmos 1825 Rocket - Pass Details

Date: 20 March 2026
Orbit: 596 x 623 km, 82.5° (Epoch: 15 April)

Event Time Altitude Azimuth Distance (km) Brightness Sun altitude
Rises 19:41:15 0° 239° (WSW) 2,894 7.8 -14.0°
Reaches altitude 10° 19:45:13 10° 275° (W) 1,996 7.5 -14.7°
Maximum altitude 19:46:30 11° 292° (WNW) 1,925 7.4 -14.9°
Drops below altitude 10° 19:47:47 10° 309° (NW) 2,000 7.2 -15.2°
Sets 19:51:47 0° 345° (NNW) 2,911 7.4 -15.9°
